Location: Castillon
(43.0896°N, 0.2156°E)
Time: 15:37:15
(UTC+00:00)

Cosmos 1844 Rocket - Pass Details

Date: 16 June 2021
Orbit: 823 x 846 km, 71.0° (Epoch: 04 August)

Event Time Altitude Azimuth Distance (km) Brightness Sun altitude
Rises 20:35:39 0° 342° (NNW) 3,409 7.1 -8.6°
Reaches altitude 10° 20:38:27 10° 354° (N) 2,473 5.9 -9.0°
Maximum altitude 20:43:20 29° 54° (NE) 1,513 4.0 -9.6°
Enters shadow 20:48:07 10° 113° (ESE) 2,437 4.5 -10.2°
